Temp
61 61 61 61 61 61 61 61 61 61 61 61 61 61 62 62 62 66 64 67 68 67 66 68 70 70 71 67 67 66 63 60 61 58 63 64 62 65 66 66 65 67 67 67 69
62 61 61 61 61 61 60 61 61 60 61 61 61 61 61 61 62 63 68 68 68 67 68 68 66 68 67 65 65 65 61 63 64 65 63 64 63 65 62 63 63 65 66 64 64
62 61 61 61 61 61 61 60 60 60 60 60 61 61 61 62 62 64 67 68 68 67 68 68 68 67 63 65 63 62 62 63 64 64 62 62 60 65 63 62 68 67 69 64 63
61 61 61 61 61 61 61 61 60 60 60 60 61 61 61 63 58 65 67 67 67 69 68 66 66 63 61 60 62 59 62 62 62 60 59 59 63 61 63 68 67 70 68 66 63
61 60 60 60 61 61 61 61 61 60 60 60 61 61 62 60 62 68 65 66 68 67 67 66 64 63 60 61 60 59 61 60 62 59 59 59 59 60 62 68 68 64 62 64 65
60 60 60 59 60 60 61 61 61 60 60 60 61 60 60 57 66 68 67 66 67 67 65 66 65 65 61 60 59 61 59 60 59 59 58 55 59 55 65 63 65 62 63 65 65
58 58 59 59 60 60 60 60 61 60 60 61 61 60 57 62 67 68 67 65 66 66 64 65 66 63 62 57 59 57 56 59 58 57 56 55 54 53 66 60 61 61 63 63 64
57 57 58 59 59 60 60 60 60 60 60 60 60 59 59 64 69 66 68 65 67 67 65 65 65 62 60 59 58 55 54 55 56 55 56 54 58 63 61 61 62 63 62 61 63
56 56 57 58 58 59 59 60 59 60 60 60 57 57 57 64 61 65 67 63 64 65 65 65 64 59 58 56 55 54 55 53 55 55 54 53 57 64 59 59 63 64 63 61 62
55 55 56 57 57 58 59 59 59 60 59 60 59 53 56 56 60 62 65 65 62 61 60 60 59 56 56 55 47 51 52 51 51 54 51 52 52 61 65 62 62 66 65 62 60
55 55 55 56 57 58 57 55 52 52 54 56 56 54 55 58 62 59 63 62 62 59 54 55 53 47 57 58 54 53 51 50 54 52 48 53 53 57 63 62 60 62 63 62 61
55 55 55 55 56 57 56 52 53 55 48 54 55 55 58 59 53 56 62 58 56 52 53 51 49 58 53 53 52 50 48 49 53 50 48 52 50 58 57 56 57 58 58 58 59
54 54 54 55 55 55 53 53 55 56 47 52 53 54 55 57 53 54 58 56 54 49 50 52 52 53 52 49 48 48 46 43 47 50 47 47 53 55 54 52 54 54 54 53 55
54 54 54 54 51 50 51 52 52 51 40 46 49 52 53 56 51 56 60 57 51 50 50 52 52 49 49 49 51 46 50 47 45 47 44 48 39 40 52 53 52 54 52 52 52
53 53 53 54 46 48 48 52 50 50 31 48 45 56 53 52 51 49 57 54 49 48 49 49 46 46 46 50 52 49 49 47 45 46 44 43 39 47 49 51 54 53 52 52 53
53 53 53 49 46 49 50 51 49 36 29 39 45 44 46 47 47 50 51 56 54 48 49 47 49 49 50 46 48 48 47 45 44 45 36 36 40 46 51 51 52 52 51 51 51
52 52 51 51 46 49 49 46 33 31 40 36 39 43 45 42 43 46 44 44 45 40 42 43 45 47 49 46 47 46 45 39 36 34 39 37 38 47 54 55 54 55 53 52 51
52 51 48 50 53 50 46 37 28 34 38 41 41 42 40 43 43 43 43 41 47 45 43 41 38 44 48 48 47 44 46 44 34 36 42 36 37 53 53 53 54 53 56 53 51
51 45 44 49 51 48 41 29 33 36 44 39 40 38 36 40 41 41 42 43 47 46 45 41 42 44 45 47 48 43 40 45 38 28 35 47 49 55 51 52 51 53 51 52 52
43 41 42 50 50 44 35 33 34 43 43 43 40 42 34 36 38 39 39 46 45 49 52 47 37 41 43 47 46 46 48 39 40 32 32 43 42 51 51 52 53 52 52 54 54
40 34 44 48 47 39 30 33 36 44 45 39 38 37 41 36 38 38 40 44 48 46 51 48 45 36 42 41 42 41 41 41 44 41 38 37 48 56 55 55 56 56 55 55 53
37 27 45 45 34 32 32 34 39 42 44 41 40 39 38 39 38 38 40 42 48 48 42 48 42 34 38 43 44 45 45 46 43 34 37 36 47 53 54 53 52 54 55 55 55
30 29 44 42 29 31 33 32 37 39 42 40 37 39 40 37 34 41 41 44 46 46 44 46 37 30 32 38 40 39 43 44 42 41 33 37 48 51 52 51 53 55 56 54 54
31 24 31 34 33 29 30 31 32 40 38 39 39 41 36 33 37 36 39 42 44 46 45 47 40 39 39 42 42 34 39 42 44 35 41 42 51 55 54 54 55 55 55 56 52
29 25 27 23 27 28 30 29 29 28 33 32 35 30 31 32 34 34 39 39 42 44 43 44 33 36 41 40 40 40 39 40 39 45 42 48 46 56 59 57 58 61 57 52 51
28 27 29 27 30 26 27 25 26 27 29 27 26 28 31 31 28 31 34 35 39 40 42 40 33 33 30 38 38 33 41 41 42 44 46 45 43 55 60 60 57 57 56 51 54
35 35 31 25 26 25 25 26 27 31 30 30 29 28 30 29 31 33 35 36 39 36 35 34 33 31 31 33 33 33 40 39 41 45 46 41 49 56 55 54 55 57 56 54 55
MSLP
1019.03 1018.88 1018.90 1018.76 1018.56 1018.53 1018.48 1018.27 1017.81 1017.80 1017.34 1017.02 1016.62 1016.59 1016.23 1015.76 1015.22 1015.11 1014.70 1014.47 1014.18 1014.43 1014.45 1014.42 1014.33 1014.09 1013.64 1013.66 1013.70 1013.35 1012.45 1011.11 1011.16 1011.17 1011.10 1012.17 1012.08 1012.58 1012.78 1012.52 1012.86 1012.86 1012.83 1013.42 1014.13
1018.86 1018.80 1018.68 1018.70 1018.75 1018.70 1018.35 1018.06 1017.90 1017.38 1017.31 1017.08 1016.77 1016.35 1015.91 1015.68 1015.25 1014.72 1014.35 1014.24 1014.25 1014.22 1014.34 1014.12 1013.99 1013.82 1013.54 1013.65 1013.53 1013.08 1012.33 1011.41 1011.55 1011.77 1011.79 1012.35 1012.33 1012.35 1012.69 1012.41 1012.35 1012.62 1013.05 1013.91 1014.46
1018.47 1018.61 1018.62 1018.59 1018.42 1018.31 1018.28 1018.10 1017.86 1017.61 1017.28 1016.69 1016.80 1016.66 1015.67 1015.29 1015.02 1014.18 1014.32 1014.26 1014.19 1014.26 1014.21 1013.96 1014.02 1013.66 1013.78 1013.55 1013.53 1013.26 1012.21 1012.22 1012.15 1012.53 1012.72 1012.66 1012.58 1012.47 1012.17 1011.49 1011.14 1011.23 1011.82 1013.30 1013.94
1017.98 1017.99 1018.11 1018.18 1018.33 1018.24 1017.96 1017.78 1017.52 1017.38 1017.22 1017.11 1016.67 1015.69 1015.36 1015.08 1014.60 1014.16 1014.19 1014.24 1014.15 1013.99 1013.95 1013.95 1013.90 1013.71 1013.64 1013.44 1013.61 1013.51 1012.59 1012.80 1012.92 1013.22 1013.29 1012.98 1012.68 1012.25 1011.79 1010.67 1011.21 1011.18 1011.84 1012.66 1013.27
1017.69 1017.68 1017.66 1017.58 1017.52 1017.51 1017.44 1017.37 1017.29 1017.09 1016.82 1016.50 1015.89 1015.32 1015.14 1014.79 1014.05 1014.00 1014.10 1014.12 1014.02 1014.04 1013.87 1013.73 1013.68 1013.57 1013.42 1013.48 1013.73 1013.34 1012.94 1013.23 1013.38 1013.59 1013.50 1013.42 1012.89 1012.57 1011.16 1010.94 1011.33 1011.67 1012.19 1012.39 1012.63
1017.65 1017.38 1017.37 1017.38 1017.30 1017.21 1017.04 1016.86 1016.67 1016.57 1016.39 1016.05 1015.90 1015.99 1015.44 1014.68 1014.07 1014.02 1014.04 1014.16 1014.13 1013.92 1013.92 1013.96 1013.72 1013.74 1013.55 1013.70 1013.75 1013.43 1013.46 1013.15 1013.34 1013.53 1013.57 1013.49 1012.78 1012.98 1010.62 1010.79 1010.84 1011.45 1011.68 1011.96 1012.22
1017.88 1017.46 1017.01 1016.95 1017.01 1017.02 1017.12 1017.05 1016.88 1016.77 1016.70 1016.68 1016.64 1016.24 1015.44 1014.44 1014.08 1014.06 1014.14 1014.23 1014.22 1014.00 1013.96 1014.20 1014.12 1013.96 1013.82 1013.93 1014.08 1013.87 1013.29 1012.89 1013.02 1013.45 1013.55 1013.69 1012.33 1011.22 1010.45 1010.93 1010.75 1010.93 1011.16 1011.56 1011.93
1018.03 1017.74 1017.24 1016.79 1016.63 1016.57 1016.59 1016.68 1016.71 1016.72 1016.67 1016.51 1016.45 1016.08 1014.58 1014.30 1014.10 1014.11 1014.17 1014.23 1014.34 1014.29 1014.23 1014.38 1014.32 1014.22 1014.24 1014.37 1013.91 1013.43 1013.28 1012.62 1012.84 1013.28 1013.58 1013.82 1010.62 1009.92 1010.28 1010.39 1010.11 1010.24 1010.57 1011.07 1011.44
1018.53 1017.80 1017.61 1017.26 1016.79 1016.44 1016.25 1016.27 1016.31 1016.31 1016.24 1016.14 1016.20 1015.82 1014.45 1014.28 1014.27 1014.12 1013.96 1013.88 1014.22 1014.49 1014.58 1014.63 1014.55 1014.49 1014.56 1013.94 1013.44 1013.06 1012.09 1012.29 1012.32 1013.10 1013.35 1013.21 1010.41 1009.49 1010.04 1009.97 1009.35 1009.40 1009.89 1010.34 1010.90
1018.81 1018.22 1017.87 1017.45 1017.01 1016.53 1016.18 1016.13 1016.04 1016.03 1016.19 1016.20 1016.09 1016.16 1014.63 1014.13 1014.09 1014.18 1014.16 1014.03 1014.14 1014.55 1014.61 1014.59 1014.56 1014.25 1014.05 1013.40 1012.38 1011.95 1012.04 1012.22 1012.45 1012.93 1013.01 1012.23 1010.01 1009.13 1008.95 1009.01 1008.44 1008.44 1009.01 1009.68 1010.35
1018.73 1018.41 1017.80 1017.41 1016.86 1016.44 1016.35 1016.21 1016.38 1016.32 1015.95 1014.70 1014.51 1014.33 1013.95 1014.22 1014.19 1014.18 1014.23 1014.10 1014.22 1014.56 1014.29 1014.60 1014.10 1013.19 1012.56 1012.52 1012.56 1012.28 1012.42 1012.42 1012.41 1012.86 1012.86 1011.10 1009.63 1008.04 1007.70 1007.80 1007.79 1007.83 1008.21 1009.00 1009.84
1018.59 1018.27 1017.72 1017.20 1016.83 1016.23 1016.12 1016.01 1015.66 1015.67 1015.01 1013.92 1014.03 1014.07 1013.74 1013.69 1014.07 1014.16 1014.38 1014.10 1014.13 1013.98 1014.35 1014.62 1013.25 1012.82 1013.10 1013.10 1013.00 1012.94 1012.87 1012.68 1012.54 1013.02 1012.96 1010.94 1008.88 1007.06 1006.99 1007.18 1007.52 1007.84 1008.19 1008.97 1009.81
1018.66 1018.26 1017.76 1017.08 1016.28 1015.95 1015.83 1015.46 1015.30 1015.71 1015.58 1013.95 1013.54 1013.30 1013.36 1013.65 1013.41 1013.65 1013.93 1014.13 1013.75 1013.79 1013.79 1013.42 1013.28 1013.22 1013.24 1013.50 1013.44 1013.36 1013.23 1013.29 1013.27 1012.88 1012.76 1011.76 1008.56 1007.24 1007.26 1007.63 1007.91 1008.32 1008.82 1009.38 1009.90
1018.67 1018.32 1017.82 1017.12 1016.91 1016.41 1016.02 1015.97 1015.58 1016.31 1015.45 1013.45 1013.18 1012.65 1013.05 1013.25 1013.63 1013.56 1013.68 1013.53 1014.03 1013.53 1013.83 1013.75 1013.62 1013.64 1013.67 1013.55 1013.54 1013.56 1013.50 1013.73 1013.58 1013.16 1012.75 1012.53 1010.39 1008.04 1007.18 1007.16 1007.60 1008.11 1008.66 1009.28 1010.04
1018.77 1018.40 1018.12 1017.91 1017.38 1016.52 1016.51 1016.18 1015.94 1016.43 1014.53 1012.63 1012.96 1013.13 1012.89 1013.19 1013.22 1013.80 1013.85 1013.68 1013.42 1013.70 1013.89 1013.44 1013.69 1013.92 1013.93 1013.66 1013.66 1013.76 1013.98 1013.90 1013.79 1013.39 1013.24 1012.58 1012.08 1007.48 1007.28 1006.89 1007.27 1007.99 1008.81 1009.55 1010.24
1018.64 1018.36 1018.14 1017.74 1017.46 1016.47 1016.30 1016.46 1016.00 1015.90 1013.43 1012.86 1012.89 1012.86 1013.08 1013.38 1013.53 1013.79 1013.84 1013.83 1013.70 1013.80 1013.83 1013.87 1014.22 1014.06 1013.98 1014.42 1014.37 1014.38 1014.26 1014.19 1014.02 1013.53 1013.12 1012.43 1011.93 1007.76 1006.86 1006.88 1007.25 1008.06 1008.93 1009.79 1010.52
1018.25 1017.94 1017.83 1017.72 1016.82 1016.60 1016.39 1016.38 1015.87 1014.17 1012.91 1012.89 1012.64 1012.75 1012.70 1013.12 1013.58 1013.38 1013.35 1013.20 1012.70 1013.38 1013.30 1014.02 1014.09 1014.25 1014.21 1014.52 1014.91 1014.42 1014.13 1013.70 1013.50 1013.17 1012.23 1012.26 1011.53 1007.33 1006.61 1006.85 1007.23 1007.73 1008.82 1009.88 1010.74
1017.90 1017.59 1017.13 1016.85 1016.41 1016.80 1016.55 1016.24 1014.66 1012.79 1012.12 1012.28 1012.37 1012.63 1012.72 1012.92 1013.25 1013.25 1013.10 1012.80 1012.40 1012.15 1012.24 1012.85 1013.80 1013.71 1013.73 1013.65 1013.49 1013.99 1013.72 1012.71 1012.40 1012.44 1011.90 1011.99 1009.53 1006.13 1006.30 1006.82 1007.43 1007.97 1008.64 1009.79 1010.69
1017.62 1017.32 1016.94 1016.13 1016.13 1016.34 1016.20 1015.41 1012.94 1012.58 1011.88 1011.65 1012.57 1012.39 1012.79 1013.00 1013.01 1013.00 1012.67 1011.93 1011.25 1011.46 1011.25 1011.86 1012.67 1013.57 1013.81 1013.79 1013.72 1014.13 1013.79 1013.15 1012.57 1013.40 1011.89 1009.11 1007.37 1005.54 1006.02 1006.67 1007.27 1007.85 1008.65 1009.28 1010.13
1017.75 1017.29 1016.54 1015.90 1015.82 1016.06 1015.75 1014.37 1013.33 1012.19 1011.69 1011.33 1011.41 1011.41 1011.89 1012.61 1012.84 1012.64 1012.15 1010.54 1010.44 1010.26 1010.41 1010.94 1012.44 1013.70 1014.04 1014.07 1013.97 1013.39 1013.11 1013.12 1012.62 1011.82 1010.38 1008.02 1007.06 1005.10 1005.30 1005.69 1006.54 1007.26 1007.94 1008.67 1009.58
1017.92 1017.25 1016.22 1015.97 1015.86 1015.69 1015.14 1014.26 1013.22 1012.28 1011.75 1011.62 1011.74 1011.48 1011.23 1011.62 1012.11 1011.83 1011.13 1010.38 1010.00 1010.07 1010.38 1010.83 1011.55 1014.05 1014.33 1013.39 1012.63 1013.38 1012.83 1012.46 1011.74 1010.76 1009.35 1007.85 1005.46 1004.46 1004.69 1005.13 1005.58 1006.18 1007.21 1008.04 1008.95
1018.23 1017.59 1016.43 1015.90 1015.92 1015.54 1014.97 1014.42 1013.73 1012.55 1012.30 1012.19 1012.41 1011.48 1011.54 1011.34 1011.46 1011.46 1010.46 1010.05 1010.10 1010.14 1010.39 1010.85 1011.52 1012.66 1012.96 1013.10 1012.97 1012.40 1011.72 1011.38 1010.69 1010.46 1009.54 1008.30 1005.22 1004.53 1004.92 1005.29 1005.64 1005.92 1006.71 1007.64 1008.49
1018.57 1018.20 1016.66 1016.48 1016.13 1015.66 1015.34 1014.82 1014.06 1013.51 1012.80 1012.65 1012.41 1012.22 1012.04 1011.88 1012.09 1010.90 1010.31 1009.94 1010.21 1010.29 1010.06 1010.62 1011.05 1012.23 1012.99 1013.34 1013.10 1012.18 1011.35 1010.69 1010.60 1010.00 1008.76 1007.44 1004.99 1004.61 1004.84 1005.20 1005.52 1005.83 1006.43 1007.27 1008.06
1018.99 1018.72 1017.90 1017.37 1017.15 1016.44 1015.95 1015.53 1014.83 1014.24 1013.94 1013.49 1013.00 1012.55 1012.76 1012.47 1012.06 1011.44 1010.89 1010.65 1010.50 1010.59 1010.58 1010.47 1010.57 1010.10 1009.88 1009.76 1009.86 1010.77 1009.97 1009.85 1009.70 1009.02 1007.40 1005.76 1004.65 1004.12 1004.36 1004.60 1005.00 1005.60 1006.29 1006.93 1007.70
1019.49 1019.64 1019.62 1018.80 1018.02 1017.56 1016.99 1016.57 1015.85 1015.43 1015.15 1015.03 1014.38 1014.55 1013.89 1012.92 1012.47 1012.29 1011.89 1011.64 1011.35 1010.80 1010.95 1011.24 1010.99 1010.65 1010.20 1010.05 1009.82 1009.36 1008.82 1008.81 1008.28 1007.19 1006.27 1004.93 1004.51 1003.26 1003.45 1004.03 1004.54 1004.79 1005.64 1006.37 1006.96
1019.74 1019.74 1019.81 1019.41 1018.81 1018.35 1017.90 1017.92 1017.38 1017.01 1016.61 1016.40 1016.30 1015.39 1014.58 1014.34 1014.57 1013.62 1013.02 1012.13 1011.22 1011.33 1011.20 1011.79 1011.58 1011.21 1010.54 1010.25 1009.95 1009.36 1008.45 1008.14 1007.68 1007.13 1006.20 1005.41 1004.21 1003.46 1002.93 1003.66 1004.08 1004.49 1005.02 1005.57 1006.02
1020.14 1020.14 1020.11 1020.17 1019.44 1018.94 1019.23 1018.80 1018.36 1017.89 1017.80 1017.45 1017.21 1016.26 1015.51 1015.63 1015.18 1014.28 1013.96 1012.83 1011.98 1011.46 1011.62 1011.94 1011.84 1011.67 1011.16 1010.76 1010.31 1009.06 1006.49 1007.16 1006.78 1006.09 1005.53 1004.81 1002.86 1003.20 1002.91 1003.01 1003.14 1003.50 1004.25 1004.73 1005.33
Wind_Speed
7 8 7 7 9 9 9 10 11 10 11 13 14 14 13 13 12 3 5 1 3 1 1 1 3 3 2 4 2 1 5 6 5 5 1 4 5 4 1 6 5 7 4 3 9
7 7 8 8 7 8 9 11 11 12 12 12 13 14 14 12 2 6 3 3 2 1 3 7 5 4 3 3 2 4 4 5 1 2 2 4 6 3 5 10 9 10 8 7 11
9 8 7 8 10 9 9 9 10 11 12 13 14 13 13 7 3 1 3 2 2 3 2 2 4 2 2 2 4 4 5 1 2 5 3 4 5 5 8 11 14 13 12 14 13
11 10 9 8 9 10 10 10 10 11 12 12 13 14 13 2 1 2 0 1 3 4 4 5 3 4 4 5 3 6 5 4 2 2 3 5 3 6 15 11 1 6 3 14 15
11 11 11 11 10 11 10 10 11 11 12 14 15 15 4 1 4 2 1 1 4 4 4 5 6 4 5 4 4 6 3 4 5 4 6 5 12 13 17 16 10 4 8 13 14
10 11 12 12 11 11 11 11 12 12 13 14 14 13 2 4 2 1 1 3 2 3 4 4 3 3 1 2 6 0 5 6 4 5 6 6 8 2 4 3 12 13 12 12 13
16 18 12 12 12 11 10 10 10 10 11 11 10 4 2 5 2 1 2 2 1 2 3 2 3 3 4 2 1 1 6 5 7 3 4 1 12 16 13 5 7 11 12 12 11
18 19 18 12 13 13 11 10 10 9 10 8 3 3 5 1 1 3 4 4 3 3 3 3 1 5 1 2 1 3 2 5 4 4 2 3 9 5 3 8 10 10 10 12 13
18 18 19 16 14 12 12 10 10 10 6 0 1 2 4 1 3 3 2 4 4 4 4 4 1 2 3 4 4 4 5 5 2 5 1 8 12 3 5 7 9 9 11 11 11
17 17 17 18 18 16 10 7 9 4 2 2 0 3 2 3 3 3 2 6 4 5 4 2 2 4 4 7 6 5 4 3 6 3 6 12 25 22 17 17 18 15 13 12 12
16 17 17 19 19 15 3 1 2 3 4 7 3 1 3 3 1 2 2 6 4 2 6 3 7 10 14 11 2 1 3 8 5 0 6 12 20 24 18 17 18 17 15 15 13
15 17 18 20 22 18 3 3 3 2 7 9 5 4 2 4 4 4 4 8 7 8 7 5 12 9 4 6 4 3 4 7 6 1 4 13 26 23 10 6 7 8 9 12 12
17 18 20 21 24 5 4 5 5 6 5 4 5 5 5 7 5 13 14 4 5 9 12 10 1 7 5 6 6 5 5 3 5 8 2 12 10 5 1 3 5 6 5 4 11
16 17 19 24 5 3 2 3 6 5 5 7 8 6 6 6 5 2 8 4 3 12 8 8 4 6 7 6 8 5 5 3 2 4 5 6 9 8 3 8 5 4 4 3 9
14 16 16 14 7 3 4 2 5 2 7 8 5 2 4 7 9 3 1 2 8 7 7 4 9 8 6 4 9 0 4 3 1 1 4 3 4 8 2 4 3 3 3 5 9
13 15 18 5 4 2 2 1 2 5 9 5 4 6 10 2 2 5 4 1 3 5 1 1 1 3 1 3 1 10 4 2 1 2 4 2 3 7 3 3 1 3 4 7 10
14 17 15 7 2 1 3 3 1 7 2 6 5 7 8 7 4 6 13 11 9 9 11 3 4 2 3 6 3 3 4 2 3 3 3 2 4 12 5 4 2 7 8 9 10
16 19 6 7 5 4 2 1 7 3 5 3 5 9 7 8 5 7 10 11 14 3 6 13 8 12 9 4 6 10 4 4 6 3 2 1 8 5 1 1 3 2 7 9 10
14 4 5 3 9 4 3 6 6 5 3 10 6 5 6 4 4 8 11 9 10 13 9 8 5 1 2 2 2 8 8 2 3 2 3 5 8 12 7 5 6 8 7 12 12
5 4 4 8 7 3 3 5 5 3 4 5 8 8 10 9 9 12 13 7 9 18 7 6 2 1 3 3 2 4 6 4 2 5 6 4 6 8 3 9 10 10 13 12 12
2 4 1 7 4 3 4 5 5 6 2 2 4 9 6 11 10 9 7 3 12 12 13 6 4 4 4 12 13 7 6 3 2 4 3 2 4 2 3 3 7 13 11 12 13
2 2 2 5 5 1 3 4 3 3 2 2 4 2 9 10 12 11 13 6 6 12 13 7 3 6 6 1 3 4 8 10 6 6 3 1 5 3 3 1 2 7 9 9 10
2 3 3 2 5 5 2 4 2 3 3 7 7 3 3 4 8 11 9 3 9 11 15 9 5 5 1 2 2 9 11 8 3 1 8 6 4 1 3 4 4 4 9 10 11
1 3 3 4 3 4 1 2 3 2 2 8 5 5 3 6 6 4 8 3 8 7 3 5 4 6 9 2 7 9 18 20 17 6 7 11 6 4 4 5 5 6 7 9 10
2 1 3 3 4 6 3 5 5 6 5 11 2 7 6 4 2 4 4 3 3 8 5 3 4 5 7 1 4 4 10 22 24 21 15 9 19 18 10 10 9 6 9 10 11
2 2 2 2 4 3 8 6 8 6 5 5 5 13 8 4 6 3 3 2 2 3 10 2 2 1 3 3 4 5 11 17 23 21 21 13 16 12 15 10 12 10 11 10 11
0 2 1 5 5 3 4 4 5 6 5 2 6 6 4 8 9 11 10 11 5 5 6 8 5 2 3 1 1 10 19 16 12 15 22 22 25 7 10 12 11 12 12 12 11
Wind_Direction
294 310 323 328 333 338 334 334 343 344 347 345 346 340 339 339 321 184 232 108 143 266 123 165 186 153 143 105 92 182 237 243 250 198 153 165 212 171 333 230 205 202 244 79 145
263 280 299 311 316 323 331 336 336 342 340 342 341 339 339 339 291 238 125 145 159 76 182 177 158 150 121 122 135 223 241 242 312 245 253 204 227 218 224 212 228 228 205 163 170
260 253 259 283 302 310 315 323 331 333 335 342 335 331 339 327 243 148 153 156 129 137 111 114 120 125 175 163 179 183 246 309 251 245 254 261 248 224 239 237 236 224 212 188 192
265 270 264 259 270 285 301 313 323 329 331 332 333 343 333 256 233 124 139 160 118 142 133 132 140 167 199 205 180 234 243 243 300 226 215 246 293 254 234 249 294 223 194 187 201
259 258 267 272 272 283 294 303 313 324 332 337 342 344 333 276 259 123 88 49 129 149 172 163 175 167 215 195 179 237 244 220 249 254 255 277 257 265 263 250 236 185 194 201 207
336 260 258 262 265 272 284 298 310 320 329 338 340 328 278 250 101 64 68 113 134 161 146 170 213 191 160 214 229 334 259 263 270 257 249 260 267 261 246 320 232 223 219 212 209
9 10 292 257 265 266 265 273 288 304 314 319 318 307 240 253 164 124 143 115 125 171 157 160 150 211 146 184 194 290 291 273 230 239 256 325 260 231 251 230 227 218 223 217 213
9 5 4 302 263 268 270 274 284 295 304 312 306 259 256 47 182 159 151 112 95 82 88 98 128 106 265 134 168 254 259 273 135 170 160 227 277 188 203 215 234 222 214 216 215
1 6 359 351 331 267 270 279 293 301 311 163 187 260 250 144 203 146 171 126 101 79 71 98 83 93 158 218 234 210 268 236 268 198 257 221 284 240 191 220 246 227 216 216 213
359 356 351 340 342 324 261 276 308 293 122 158 73 272 174 191 141 135 96 128 110 123 115 146 118 202 192 200 231 194 233 230 260 144 228 255 263 272 265 256 260 252 231 217 211
351 348 348 341 335 308 250 19 324 198 212 219 177 276 143 115 138 126 135 128 120 167 190 169 214 214 213 213 265 138 245 268 258 94 277 266 280 282 280 260 257 258 242 230 211
353 351 348 339 326 303 181 178 247 336 300 225 229 262 166 185 129 171 180 180 179 192 149 175 236 231 101 164 182 201 262 265 277 222 277 301 292 290 300 270 258 266 247 236 210
353 352 346 342 327 149 207 189 91 6 243 237 198 200 187 166 210 180 171 173 189 176 196 219 41 150 160 167 189 217 226 228 273 314 219 305 279 306 146 272 253 242 260 224 206
345 345 343 341 296 347 238 338 96 78 256 197 203 214 154 156 221 119 187 150 191 210 177 241 146 163 182 206 194 236 203 203 261 318 299 1 289 301 319 294 249 236 218 179 181
340 338 340 337 296 262 345 99 107 96 251 117 141 51 139 193 124 163 184 131 173 173 179 175 176 178 198 214 189 94 143 138 131 278 308 158 246 270 329 288 229 194 152 149 165
330 330 331 332 297 282 56 162 107 215 240 152 129 156 156 170 122 124 153 70 101 132 152 82 317 214 179 80 30 138 115 95 130 236 246 84 260 280 235 247 191 153 147 147 153
326 322 319 282 256 80 113 240 187 227 103 183 166 174 173 155 142 175 176 178 171 169 202 156 202 173 171 119 101 187 179 243 237 202 261 123 221 257 262 239 262 176 165 158 158
323 323 285 250 236 202 175 222 207 232 197 104 122 137 182 150 185 171 169 199 228 223 143 194 222 178 172 224 184 184 241 219 248 231 42 128 232 252 201 232 165 107 174 166 174
331 315 291 270 217 186 164 221 189 196 190 144 127 152 188 206 182 175 203 220 212 193 209 182 219 103 170 156 198 157 212 19 102 82 278 219 255 269 218 220 207 209 182 191 191
318 314 288 317 180 189 199 230 239 248 151 171 215 180 175 186 186 198 183 203 204 192 216 192 148 246 143 160 107 238 147 145 226 214 232 207 274 250 200 210 204 208 209 199 195
339 319 297 336 174 190 218 227 240 257 291 134 247 199 202 172 202 197 195 234 209 197 195 151 218 133 168 212 180 159 192 215 261 231 227 259 235 210 206 190 215 211 206 200 198
347 309 20 329 194 208 211 188 298 297 168 159 281 319 208 177 186 216 204 229 179 156 189 176 124 165 195 31 294 233 199 195 211 190 237 8 275 153 243 219 231 214 196 197 203
7 289 327 305 212 215 171 256 270 271 233 189 211 242 16 209 205 215 195 147 160 173 165 177 192 132 131 215 196 219 201 213 117 76 199 181 229 139 215 221 210 195 199 197 191
48 349 328 30 349 357 108 313 227 279 285 314 316 191 165 206 231 276 214 169 169 180 52 152 191 228 216 146 145 194 200 198 202 205 188 224 261 225 237 227 197 206 213 207 201
22 24 350 0 6 354 329 23 1 8 11 26 128 20 307 219 186 214 207 146 180 172 108 210 243 220 251 295 196 217 199 196 208 211 211 210 223 239 214 196 205 207 196 196 207
70 354 5 9 329 44 17 19 27 350 331 43 14 331 321 32 352 340 314 215 232 161 165 201 245 42 272 199 218 260 232 211 218 225 241 257 261 239 257 258 237 227 206 207 211
11 26 283 355 2 54 27 346 11 344 64 85 316 321 345 345 296 267 253 284 274 166 158 173 176 116 254 14 177 272 226 199 203 215 217 226 236 221 257 235 243 221 216 215 214